Location: Bosmont
(49.7318°N, 3.8587°E)
Time: 17:27:25
(UTC+00:00)

Daily predictions for brighter satellites

Satellite Brightness Start Highest point End
(mag) Time Altitude Azimuth Time Altitude Azimuth Time Altitude Azimuth
Cosmos 2333 Rocket 2.9 17:12:51 10° S 17:17:57 36° ESE 17:23:06 10° NE
In-Cosmos 22 Rocket 4.5 17:15:17 10° S 17:20:55 52° E 17:26:33 10° NNE
Cosmos 1943 Rocket 4.0 17:18:43 10° N 17:21:24 13° NNE 17:24:05 10° NE
COSMOS 2455 4.3 17:16:15 10° W 17:21:35 32° NW 17:26:57 10° NNE
SL-08 RB Rocket 4.2 17:20:14 10° S 17:24:52 69° WSW 17:29:33 10° NNW
SL-16 R/B 2.5 17:20:20 10° SW 17:26:00 74° WNW 17:31:44 10° NNE
CZ-4C R/B 4.2 17:24:55 10° NE 17:28:04 25° E 17:31:04 10° SSE
Cosmos 1980 Rocket 4.1 17:26:54 10° W 17:31:35 26° NW 17:36:19 10° NNE
COSMOS 2428 3.9 17:28:43 10° SSE 17:32:50 21° E 17:36:57 10° NE
Lacrosse 5 2.1 17:28:27 10° WSW 17:33:34 72° NNW 17:38:41 10° NE
Cosmos 1633 2.5 17:32:44 10° S 17:35:59 52° E 17:39:16 10° NNE
SL-4 R/B 1.6 17:35:09 10° WNW 17:38:38 86° SSW 17:42:18 10° ESE
Cosmos 676 Rocket 4.2 17:34:34 10° SSW 17:39:52 78° WNW 17:45:08 10° NNE
ADEOS 4.3 17:40:22 10° S 17:45:31 60° WSW 17:50:42 10° NNW
IRIDIUM 103 4.4 17:40:45 10° N 17:45:53 54° E 17:51:00 10° SSE
Lacrosse 4 Rocket 3.6 17:49:08 10° N 17:50:48 12° NNE 17:52:24 10° NE
CZ-4 R/B 4.4 17:47:05 10° SSE 17:51:11 77° ENE 17:55:21 10° N
Cosmos 1461 3.7 17:48:31 10° WSW 17:52:46 54° NW 17:57:14 10° NNE
Okean O Rocket 2.6 17:50:23 10° ESE 17:54:05 27° ENE 17:57:49 10° N
Cosmos 2322 4.2 17:49:12 10° S 17:54:28 39° ESE 17:59:45 10° NE
Cosmos 1825 2.5 17:51:44 10° SSW 17:55:24 68° WNW 17:59:06 10° N
SKYMED 2 3.5 17:51:23 10° NNE 17:55:45 69° ESE 18:00:03 10° S
CZ-4 R/B 2.3 17:53:26 10° SE 17:56:54 28° ENE 18:00:20 10° N
Cosmos 1745 Rocket 4.0 17:51:20 10° N 17:57:29 57° ENE 18:03:31 10° SSE
YAOGAN 1 2.8 17:54:47 10° SE 17:58:54 46° ENE 18:03:02 10° N
RESURS DK-1 4.3 17:56:23 10° NW 18:00:07 33° WSW 18:03:49 10° S
Cosmos 2058 Rocket 3.0 17:58:23 10° N 18:02:49 88° ENE 18:07:17 10° S
Cosmos 1892 4.4 17:59:46 10° SW 18:03:14 35° WNW 18:06:44 10° N
Okean 1-7 Rocket 4.2 17:59:28 10° SSE 18:03:28 34° E 18:07:31 10° NNE
IRIDIUM 106 4.3 17:58:58 10° N 18:04:13 76° E 18:09:26 10° S
Cosmos 1844 Rocket 4.3 17:59:39 10° NW 18:04:45 38° WSW 18:09:50 10° S
Okean-O 4.3 18:05:35 15° NE 18:05:35 15° NE 18:07:55 10° NNE
Gblst 52 Del rocket 4.2 18:02:55 10° W 18:08:35 75° N 18:12:32 19° ENE
Cosmos 2058 4.4 18:05:43 10° SE 18:07:41 18° ESE 18:07:41 18° ESE
PAYLOAD B 4.1 18:03:53 10° SSE 18:09:22 75° ENE 18:14:52 10° NNW
Cosmos-2242 3.7 18:07:09 10° N 18:10:56 31° ENE 18:14:43 10° SE
Cosmos 1340 3.0 18:07:38 10° NNW 18:11:18 65° W 18:14:55 10° S
Cosmos 44 Rocket 3.1 18:09:28 10° SSW 18:14:10 81° SE 18:18:22 14° NE
Cosmos 1869 4.0 18:11:20 10° NNW 18:15:12 56° W 18:19:05 10° S
Cosmos 1709 Rocket 4.1 18:09:16 10° N 18:15:14 50° ENE 18:21:08 10° SSE
USA 215 3.6 18:09:34 10° SE 18:16:03 66° SW 18:22:34 10° WNW
SOZ 4.2 18:15:22 10° WNW 18:18:00 53° N 18:18:22 45° NE
PSLV R/B 3.6 18:17:45 10° SSE 18:21:27 83° ENE 18:25:15 10° NNW
Cosmos 1553 Rocket 4.1 18:16:18 10° SSW 18:22:25 81° W 18:28:41 10° N
Feng Yun 1-1 Rocket 4.4 18:18:15 10° SE 18:23:30 49° ENE 18:28:42 10° N
Cosmos 1417 Rocket 4.4 18:20:06 10° S 18:26:21 82° E 18:32:32 10° N
CZ-4B R/B 3.1 18:24:41 10° SSE 18:30:04 78° ENE 18:35:36 10° NNW
Cosmos 2219 Rocket 2.1 18:26:57 10° SSW 18:32:33 87° ESE 18:38:13 10° NNE
ATLAS 5 CENTAUR R/B 3.5 18:30:00 10° NNW 18:33:23 19° NNE 18:34:47 18° NE
Landsat 7 4.4 18:35:08 31° E 18:35:55 33° ENE 18:40:09 10° N
BlueWalker 3 1.9 18:32:09 10° WNW 18:36:02 80° SSW 18:37:32 36° ESE
Cosmos 2360 Rocket 3.1 18:30:39 10° SW 18:36:06 48° NW 18:41:36 10° NNE
Cosmos 1602 Rocket 3.6 18:33:41 10° SSE 18:37:50 49° E 18:42:01 10° NNE
Cosmos 1814 Rocket 4.2 18:33:48 10° NNW 18:39:10 75° WSW 18:44:30 10° SSE
Cosmos 1606 2.9 18:36:19 10° NNW 18:40:09 72° W 18:43:57 10° S
COSMO-SKYMED 1 3.9 18:39:31 10° N 18:43:38 41° WNW 18:47:43 10° SW
Lacrosse 5 rocket 4.2 18:43:22 10° WSW 18:44:33 11° SW 18:45:43 10° SW
SJ-6B 3.1 18:44:58 44° ENE 18:44:58 44° ENE 18:48:44 10° N
ATLAS CENTAUR R/B 3.9 18:44:24 10° NW 18:46:22 13° NNW 18:48:18 10° NNE
Cosmos 2237 Rocket 3.0 18:42:32 10° SSE 18:46:55 30° ESE 18:46:55 30° ESE
USA 186 4.2 18:51:09 13° N 18:51:09 13° N 18:51:38 10° N
IGS 5A 3.3 18:46:58 29° SE 18:48:54 62° ENE 18:53:00 10° N
Cosmos 2278 Rocket 2.1 18:44:41 10° NNW 18:50:23 72° ENE 18:53:55 24° SE
Cosmos 2322 Rocket 3.9 18:47:25 10° WSW 18:52:18 29° NW 18:57:12 10° NNE
Cosmos 1812 Rocket 3.4 18:47:58 10° N 18:52:28 82° E 18:56:54 10° SSE
Cosmos 1758 Rocket 3.5 18:48:25 10° S 18:52:41 60° E 18:56:52 11° NNE
NOSS 0 Rocket 4.1 18:47:43 10° S 18:53:40 48° ESE 18:56:15 31° ENE
Cosmos 1356 Rocket 3.3 18:50:21 10° S 18:53:49 54° SE 18:53:49 54° SE
Cosmos 1980 4.1 18:53:15 10° S 18:58:04 39° ESE 18:58:04 39° ESE
BREEZE-M DEB (TANK) 4.0 18:55:48 10° W 18:59:34 49° S 19:04:17 24° SE
S3M 4.3 18:54:11 10° SSW 19:00:33 71° WNW 19:06:56 10° N
CSL-04 Debris 4.1 18:58:39 26° SE 19:01:41 64° ENE 19:07:01 10° N
Cosmos 2369 Rocket 3.8 18:58:10 10° N 19:01:37 18° NNE 19:01:37 18° NNE
Cosmos 2333 Rocket 3.2 18:56:40 10° SW 19:02:07 46° NW 19:07:37 10° NNE
CSL-04 Rocket 3.6 19:01:24 37° SE 19:03:21 59° ENE 19:08:43 10° N
SPOT 1/Viking Rocket 4.5 19:06:36 31° NE 19:06:36 31° NE 19:09:57 10° N
Cosmos 1943 Rocket 2.6 19:01:24 10° NNW 19:06:48 42° NE 19:06:56 42° NE
IRS-1C Rocket 4.4 19:07:02 45° ENE 19:07:02 45° ENE 19:11:48 10° N
Cosmos 1626 Rocket 4.2 19:02:45 10° SSW 19:06:59 55° WNW 19:11:18 10° N
SL-16 R/B 4.5 19:07:05 10° W 19:11:08 19° NW 19:15:12 10° N
Cosmos 2285 Rocket 4.3 19:06:21 10° NNW 19:12:20 42° NE 19:12:33 42° ENE
Resurs 01 Rocket 3.7 19:17:08 17° N 19:17:08 17° N 19:18:17 10° N
Cosmos 968 Rocket 3.6 19:11:15 10° SSW 19:16:28 74° WNW 19:20:14 20° NNE
COSMOS 2428 2.8 19:10:48 10° SW 19:16:28 74° WNW 19:20:22 21° NNE
Lacrosse 5 2.8 19:12:23 10° WNW 19:17:10 38° N 19:18:14 34° NNE
SL-4 R/B 3.5 19:14:38 10° W 19:17:38 25° SW 19:18:04 24° SSW
Cosmos 2208 Rocket 4.2 19:13:14 10° NNW 19:18:25 71° WSW 19:21:18 27° S
Meteor 2-2 Rocket 4.2 19:20:44 10° NNW 19:26:26 82° W 19:30:32 20° S
Okean O Rocket 2.9 19:26:07 10° SSW 19:30:15 40° W 19:34:27 10° NNW
Lacrosse 4 Rocket 3.0 19:26:24 10° NNW 19:28:37 26° N 19:28:37 26° N
Cosmos 836 Rocket 4.3 19:25:33 10° NNW 19:30:50 88° ENE 19:31:03 83° SE
Cosmos 2315 Rocket 4.3 19:24:33 10° SSW 19:30:52 69° WNW 19:37:17 10° N
CZ-4 R/B 3.1 19:28:02 10° SSW 19:31:42 32° W 19:35:21 10° NNW
Okean-O 3.8 19:43:07 35° NNW 19:43:07 35° NNW 19:45:44 10° NNW
Cosmos 2058 4.3 19:41:07 10° SSW 19:43:57 36° WSW 19:43:57 36° WSW
Gblst 52 Del rocket 4.5 19:54:57 10° WNW 19:59:29 62° WNW 19:59:29 62° WNW
Cosmos 2219 Rocket 4.2 20:12:53 10° W 20:17:16 23° NW 20:20:24 15° N
ATLAS 5 CENTAUR R/B 3.7 20:13:58 10° NW 20:16:09 26° NNW 20:16:09 26° NNW
Cosmos 2074 Rocket 4.5 20:14:37 10° NNW 20:20:47 57° W 20:21:08 56° WSW
Cosmos 2184 Rocket 4.5 20:17:17 10° NNW 20:23:21 56° W 20:23:21 56° W
Cosmos 2237 Rocket 3.6 20:25:43 10° SW 20:28:51 32° WSW 20:28:51 32° WSW
Cosmos 2278 Rocket 4.3 20:29:42 10° NW 20:33:53 21° W 20:35:51 18° SW
Cosmos 2369 Rocket 4.2 20:41:30 10° NNW 20:43:24 22° NNW 20:43:24 22° NNW
Cosmos 1943 Rocket 3.9 20:45:17 10° NW 20:48:30 30° WNW 20:48:30 30° WNW
Lacrosse 5 4.4 20:56:08 10° WNW 20:57:26 17° NW 20:57:26 17° NW
